This is the latest recevied weather packets stored in our database for station/object WW5JC. If no packets are shown the sender has not sent any weather packets the latest 10 day(s).
| Time | Temp. | Humidity | Pressure | Rain* | Wind** | Luminosity | Snow |
|---|---|---|---|---|---|---|---|
| 1777556213 | 15.56° C | 84% | 1017.6 hPa | 0 mm | - | 163 W/m² | - |
| 1777555909 | 15° C | 85% | 1017.6 hPa | 0 mm | - | 190 W/m² | - |
| 1777555605 | 15° C | 85% | 1017.8 hPa | 0 mm | - | 163 W/m² | - |
| 1777555302 | 15° C | 85% | 1017.8 hPa | 0 mm | - | 119 W/m² | - |
| 1777554999 | 15° C | 86% | 1017.6 hPa | 0 mm | - | 102 W/m² | - |
| 1777554696 | 15° C | 86% | 1017.8 hPa | 0 mm | - | 124 W/m² | - |
| 1777554392 | 15° C | 87% | 1017.7 hPa | 0 mm | - | 140 W/m² | - |
| 1777554090 | 15° C | 86% | 1017.5 hPa | 0 mm | - | 109 W/m² | - |
| 1777553786 | 15° C | 88% | 1017.5 hPa | 0 mm | - | 92 W/m² | - |
| 1777553483 | 15° C | 87% | 1017.3 hPa | 0 mm | - | 93 W/m² | - |
| 1777553178 | 15° C | 87% | 1017.2 hPa | 0 mm | - | 89 W/m² | - |
| 1777552874 | 15° C | 89% | 1017.1 hPa | 0 mm | - | 91 W/m² | - |
| 1777552569 | 15° C | 89% | 1017.3 hPa | 0 mm | - | 73 W/m² | - |
| 1777552260 | 14.44° C | 91% | 1017.1 hPa | 0 mm | - | 64 W/m² | - |
| 1777551956 | 14.44° C | 90% | 1016.8 hPa | 0 mm | - | 58 W/m² | - |
| 1777551654 | 14.44° C | 91% | 1017.1 hPa | 0 mm | - | 48 W/m² | - |
| 1777551352 | 14.44° C | 92% | 1016.8 hPa | 0 mm | - | 31 W/m² | - |
| 1777551042 | 14.44° C | 93% | 1016.7 hPa | 0 mm | - | 26 W/m² | - |
| 1777550739 | 13.89° C | 94% | 1016.7 hPa | 0 mm | - | 24 W/m² | - |
| 1777550436 | 13.89° C | 95% | 1016.5 hPa | 0 mm | - | 22 W/m² | - |
| 1777550132 | 13.89° C | 95% | 1016.6 hPa | 0 mm | - | 20 W/m² | - |
| 1777549828 | 14.44° C | 94% | 1016.4 hPa | 0 mm | - | 14 W/m² | - |
| 1777549525 | 14.44° C | 93% | 1016.5 hPa | 0 mm | - | 11 W/m² | - |
| 1777549221 | 14.44° C | 92% | 1016.3 hPa | 0 mm | - | 7 W/m² | - |
| 1777548918 | 14.44° C | 92% | 1016.3 hPa | 0 mm | - | 3 W/m² | - |
* Rain latest hour (hover to see other rain measurements)
** Current wind speed in m/s (hover to see current wind gust speed)